TimeEDT,TemperatureF,Dew PointF,Humidity,Sea Level PressureIn,VisibilityMPH,Wind Direction,Wind SpeedMPH,Gust SpeedMPH,PrecipitationIn,Events,Conditions,WindDirDegrees,DateUTC
12:53 AM,75.0,71.1,87,30.16,7.0,South,5.8,-,N/A,,Clear,190,2013-09-11 04:53:00
1:53 AM,73.9,70.0,87,30.15,6.0,SSW,4.6,-,N/A,,Clear,200,2013-09-11 05:53:00
2:53 AM,72.0,69.1,91,30.15,4.0,SSW,4.6,-,N/A,,Clear,210,2013-09-11 06:53:00
3:53 AM,72.0,69.1,91,30.14,4.0,Calm,Calm,-,N/A,,Clear,0,2013-09-11 07:53:00
4:53 AM,71.1,69.1,93,30.14,3.0,Calm,Calm,-,N/A,,Clear,0,2013-09-11 08:53:00
5:53 AM,70.0,69.1,97,30.15,3.0,Calm,Calm,-,N/A,,Clear,0,2013-09-11 09:53:00
6:20 AM,68.0,66.2,94,30.19,2.5,Calm,Calm,-,N/A,,Clear,0,2013-09-11 10:20:00
6:53 AM,68.0,66.9,96,30.17,1.0,Calm,Calm,-,N/A,,Clear,0,2013-09-11 10:53:00
7:13 AM,69.8,68.0,94,30.20,2.0,Calm,Calm,-,N/A,,Clear,0,2013-09-11 11:13:00
7:26 AM,69.8,68.0,94,30.20,1.5,Calm,Calm,-,N/A,,Clear,0,2013-09-11 11:26:00
7:53 AM,71.1,70.0,96,30.17,2.0,Calm,Calm,-,N/A,,Clear,0,2013-09-11 11:53:00
8:17 AM,73.4,71.6,94,30.20,3.0,Calm,Calm,-,N/A,,Clear,0,2013-09-11 12:17:00
8:53 AM,77.0,72.0,84,30.17,5.0,SSW,6.9,-,N/A,,Haze,210,2013-09-11 12:53:00
9:53 AM,81.0,72.0,74,30.17,7.0,SSW,5.8,-,N/A,,Clear,210,2013-09-11 13:53:00
10:53 AM,84.0,72.0,67,30.16,8.0,Variable,5.8,-,N/A,,Mostly Cloudy,0,2013-09-11 14:53:00
11:53 AM,84.9,72.0,65,30.14,9.0,WNW,5.8,-,N/A,,Scattered Clouds,290,2013-09-11 15:53:00
12:53 PM,88.0,73.0,61,30.12,9.0,WSW,5.8,-,N/A,,Scattered Clouds,240,2013-09-11 16:53:00
1:10 PM,89.6,73.4,59,30.15,9.0,SSW,8.1,-,N/A,Thunderstorm,Partly Cloudy,210,2013-09-11 17:10:00
1:44 PM,84.2,71.6,66,30.14,8.0,WSW,6.9,-,N/A,,Clear,240,2013-09-11 17:44:00
1:53 PM,86.0,73.0,65,30.09,8.0,WSW,9.2,-,N/A,,Clear,250,2013-09-11 17:53:00
2:53 PM,87.1,73.0,63,30.07,8.0,SSW,9.2,-,0.00,,Clear,210,2013-09-11 18:53:00
3:53 PM,88.0,70.0,55,30.06,10.0,SSW,9.2,-,N/A,,Partly Cloudy,210,2013-09-11 19:53:00
4:53 PM,81.0,70.0,69,30.06,8.0,West,10.4,-,N/A,,Clear,270,2013-09-11 20:53:00
5:04 PM,80.6,69.8,70,30.10,9.0,WNW,6.9,-,N/A,Thunderstorm,Thunderstorm,300,2013-09-11 21:04:00
5:19 PM,80.6,69.8,70,30.11,8.0,NW,8.1,-,N/A,,Clear,310,2013-09-11 21:19:00
5:53 PM,78.1,66.9,68,30.08,10.0,WNW,4.6,-,0.00,Rain,Light Rain,290,2013-09-11 21:53:00
6:53 PM,77.0,68.0,74,30.06,7.0,Calm,Calm,-,0.00,,Clear,0,2013-09-11 22:53:00
7:53 PM,73.0,66.0,79,30.07,10.0,Calm,Calm,-,N/A,,Clear,0,2013-09-11 23:53:00
8:53 PM,72.0,66.0,81,30.07,10.0,Calm,Calm,-,0.00,,Clear,0,2013-09-12 00:53:00
9:53 PM,70.0,66.9,90,30.06,8.0,Calm,Calm,-,N/A,,Clear,0,2013-09-12 01:53:00
10:53 PM,70.0,66.9,90,30.06,7.0,WSW,4.6,-,N/A,,Clear,240,2013-09-12 02:53:00
11:53 PM,71.1,68.0,90,30.04,7.0,SW,6.9,-,N/A,,Partly Cloudy,220,2013-09-12 03:53:00